Weather History for New Richmond, WI

Change the Weather History Date:

Monday, March 17, 2014

  Actual Average (KMSP) Record (KMSP)
Temperature  
Mean Temperature 24 °F 33 °F  
Max Temperature 30 °F 42 °F 80 °F (2012)
Min Temperature 19 °F 25 °F -8 °F (1941)
Degree Days  
Heating Degree Days 40 32  
Month to date heating degree days 602  
Since 1 July heating degree days 6392  
Cooling Degree Days 0 0  
Month to date cooling degree days 0  
Year to date cooling degree days 0  
Moisture  
Dew Point 17 °F    
Average Humidity 72    
Maximum Humidity 85    
Minimum Humidity 61    
Precipitation  
Precipitation 0.01 in 0.07 in 0.89 in (1965)
Month to date precipitation 0.93  
Year to date precipitation 2.60  
Snow  
Snow 0.00 in 0.40 in 11.20 in (1965)
Month to date snowfall 6.8  
Since 1 July snowfall 48.5  
Snow Depth -    
Sea Level Pressure  
Sea Level Pressure 29.73 in    
Wind  
Wind Speed 11 mph (SE)    
Max Wind Speed 18 mph    
Max Gust Speed 25 mph    
Visibility 9 miles    
Events Snow    
T = Trace of Precipitation, MM = Missing Value Source: NWS Daily Summary

Daily Weather History Graph

Daily Weather History Graph

Search for Another Location

Airport:

Trip Planner

Search our weather history database for the weather conditions in past years. The results will help you decide how hot, cold, wet, or windy it might be!

Date:

Astronomy

Mar. 17, 2014 Rise Set
Actual Time 7:18 AM CDT 7:18 PM CDT
Civil Twilight 6:49 AM CDT 7:48 PM CDT
Nautical Twilight 6:15 AM CDT 8:22 PM CDT
Astronomical Twilight 5:40 AM CDT 8:57 PM CDT
Moon 8:41 PM CDT 7:31 AM CDT
Length of Visible Light 12h 58m
Length of Day
11h 59m
Full, 99% of the Moon is Illuminated
Mar 17
Full
Mar 23
Last Quarter
Mar 30
New
Apr 7
First Quarter
Apr 15
Full

Hourly Weather History & Observations

Time (CDT) Temp. Windchill Dew Point Humidity Pressure Visibility Wind Dir Wind Speed Gust Speed Precip Events Conditions
12:15 AM 19.8 °F 10.8 °F 8.4 °F 61% 30.02 in 10.0 mi SSE 6.9 mph - N/A   Overcast
12:35 AM 19.8 °F 9.1 °F 9.3 °F 64% 30.01 in 10.0 mi SSE 9.2 mph - N/A   Overcast
12:55 AM 20.1 °F 8.1 °F 9.5 °F 63% 29.98 in 10.0 mi SSE 11.5 mph - N/A   Overcast
1:15 AM 20.3 °F 9.0 °F 9.7 °F 64% 29.97 in 10.0 mi South 10.4 mph - N/A   Overcast
1:35 AM 20.7 °F 7.6 °F 10.2 °F 64% 29.96 in 10.0 mi South 13.8 mph - N/A   Overcast
1:55 AM 21.0 °F 9.3 °F 10.2 °F 63% 29.95 in 10.0 mi South 11.5 mph 18.4 mph N/A   Overcast
2:15 AM 21.2 °F 9.5 °F 10.2 °F 63% 29.94 in 10.0 mi South 11.5 mph - N/A   Overcast
2:35 AM 21.2 °F 9.5 °F 10.4 °F 63% 29.92 in 10.0 mi SSE 11.5 mph 17.3 mph N/A   Overcast
2:55 AM 21.2 °F 7.3 °F 10.4 °F 63% 29.91 in 10.0 mi South 16.1 mph 19.6 mph N/A   Overcast
3:15 AM 21.2 °F 7.3 °F 10.8 °F 64% 29.89 in 10.0 mi South 16.1 mph - N/A   Overcast
3:35 AM 21.2 °F 8.3 °F 11.3 °F 66% 29.88 in 10.0 mi South 13.8 mph 18.4 mph N/A   Overcast
3:55 AM 21.2 °F 7.8 °F 11.8 °F 67% 29.85 in 10.0 mi SSE 15.0 mph 21.9 mph N/A   Overcast
4:15 AM 21.2 °F 6.4 °F 12.0 °F 68% 29.84 in 10.0 mi South 18.4 mph 23.0 mph N/A   Overcast
4:35 AM 21.2 °F 6.8 °F 12.9 °F 70% 29.83 in 10.0 mi South 17.3 mph 23.0 mph N/A   Overcast
4:55 AM 21.2 °F 7.3 °F 13.1 °F 71% 29.83 in 10.0 mi SSE 16.1 mph - N/A   Overcast
5:15 AM 21.2 °F 7.3 °F 13.6 °F 73% 29.80 in 10.0 mi SSE 16.1 mph 21.9 mph N/A   Overcast
5:35 AM 21.2 °F 7.3 °F 14.4 °F 75% 29.79 in 5.0 mi SSE 16.1 mph 25.3 mph N/A Snow Light Snow
5:55 AM 21.2 °F 7.8 °F 14.7 °F 76% 29.79 in 10.0 mi South 15.0 mph 23.0 mph N/A   Overcast
6:15 AM 21.7 °F 10.2 °F 14.9 °F 75% 29.80 in 10.0 mi South 11.5 mph 21.9 mph N/A   Overcast
6:35 AM 21.6 °F 9.3 °F 14.9 °F 76% 29.78 in 10.0 mi South 12.7 mph - N/A   Overcast
6:55 AM 21.7 °F 9.0 °F 14.9 °F 75% 29.78 in 10.0 mi South 13.8 mph - N/A   Overcast
7:15 AM 21.7 °F 9.0 °F 14.9 °F 75% 29.77 in 10.0 mi South 13.8 mph - N/A   Overcast
7:35 AM 21.9 °F 8.7 °F 14.9 °F 74% 29.76 in 10.0 mi South 15.0 mph - N/A   Overcast
7:55 AM 22.1 °F 8.9 °F 15.1 °F 74% 29.75 in 10.0 mi South 15.0 mph - N/A   Overcast
8:15 AM 22.1 °F 8.9 °F 15.4 °F 76% 29.74 in 10.0 mi South 15.0 mph 21.9 mph N/A   Overcast
8:35 AM 22.6 °F 10.1 °F 15.8 °F 75% 29.74 in 10.0 mi South 13.8 mph - N/A   Overcast
8:55 AM 22.6 °F 8.7 °F 16.0 °F 76% 29.72 in 10.0 mi South 17.3 mph 21.9 mph N/A   Overcast
9:15 AM 22.3 °F 8.2 °F 17.1 °F 80% 29.71 in 2.0 mi South 17.3 mph 21.9 mph N/A Snow Light Snow
9:35 AM 22.5 °F 8.9 °F 16.7 °F 79% 29.70 in 4.0 mi SSE 16.1 mph 20.7 mph N/A Snow Light Snow
9:55 AM 23.0 °F 13.1 °F 16.7 °F 77% 29.70 in 3.0 mi SSE 9.2 mph - N/A Snow Light Snow
10:15 AM 23.0 °F 11.7 °F 17.2 °F 79% 29.70 in 4.0 mi SSE 11.5 mph 19.6 mph N/A Snow Light Snow
10:35 AM 22.8 °F 11.5 °F 18.3 °F 83% 29.70 in 1.5 mi SSE 11.5 mph - N/A Snow Light Snow
10:55 AM 22.8 °F 12.2 °F 18.9 °F 85% 29.69 in 2.0 mi SSE 10.4 mph - N/A Snow Light Snow
11:15 AM 23.0 °F 10.6 °F 18.7 °F 84% 29.68 in 5.0 mi SSE 13.8 mph 18.4 mph N/A Snow Light Snow
11:35 AM 23.4 °F 12.8 °F 18.7 °F 82% 29.69 in 3.0 mi SSE 10.4 mph 16.1 mph N/A Snow Light Snow
11:55 AM 23.4 °F 11.1 °F 18.5 °F 82% 29.67 in 3.0 mi SSE 13.8 mph 17.3 mph N/A Snow Light Snow
12:15 PM 23.7 °F 11.0 °F 18.7 °F 81% 29.67 in 7.0 mi SSE 15.0 mph - N/A   Overcast
12:35 PM 24.8 °F 13.4 °F 19.2 °F 79% 29.66 in 10.0 mi SSE 12.7 mph 18.4 mph N/A   Overcast
12:55 PM 24.3 °F 12.2 °F 18.9 °F 80% 29.66 in 10.0 mi SSE 13.8 mph 18.4 mph N/A   Overcast
1:15 PM 24.3 °F 13.3 °F 18.9 °F 80% 29.66 in 10.0 mi SSE 11.5 mph 17.3 mph N/A   Overcast
1:35 PM 24.8 °F 13.4 °F 19.0 °F 79% 29.66 in 10.0 mi SE 12.7 mph 16.1 mph N/A   Overcast
1:55 PM 25.5 °F 13.8 °F 19.2 °F 77% 29.65 in 10.0 mi SE 13.8 mph 19.6 mph N/A   Overcast
2:15 PM 25.7 °F 15.7 °F 19.8 °F 78% 29.64 in 10.0 mi SE 10.4 mph - N/A   Overcast
2:35 PM 26.2 °F 17.1 °F 20.1 °F 78% 29.63 in 10.0 mi SE 9.2 mph - N/A   Overcast
2:55 PM 28.2 °F 19.5 °F 19.9 °F 71% 29.63 in 10.0 mi SE 9.2 mph 16.1 mph N/A   Overcast
3:15 PM 29.7 °F 20.7 °F 20.3 °F 68% 29.63 in 10.0 mi SE 10.4 mph - N/A   Overcast
3:35 PM 29.3 °F 20.8 °F 20.3 °F 69% 29.62 in 10.0 mi SE 9.2 mph - N/A   Overcast
3:55 PM 30.2 °F 20.8 °F 20.7 °F 68% 29.61 in 10.0 mi SSE 11.5 mph - N/A   Overcast
4:15 PM 30.2 °F 20.8 °F 20.7 °F 68% 29.62 in 10.0 mi SSE 11.5 mph 16.1 mph 0.01 in   Overcast
4:35 PM 30.7 °F 22.6 °F 21.0 °F 67% 29.62 in 10.0 mi SSE 9.2 mph - 0.01 in   Overcast
4:55 PM 29.8 °F 21.5 °F 21.4 °F 71% 29.63 in 10.0 mi ESE 9.2 mph - 0.01 in   Overcast
5:15 PM 30.0 °F 23.2 °F 21.0 °F 69% 29.63 in 10.0 mi ESE 6.9 mph - N/A   Overcast
5:35 PM 29.8 °F 21.5 °F 21.2 °F 70% 29.62 in 10.0 mi SE 9.2 mph - N/A   Overcast
5:55 PM 28.9 °F 21.9 °F 20.8 °F 72% 29.63 in 10.0 mi ESE 6.9 mph - N/A   Overcast
6:15 PM 28.9 °F 21.9 °F 21.2 °F 73% 29.62 in 10.0 mi ESE 6.9 mph - N/A   Overcast
6:35 PM 28.8 °F 20.9 °F 21.0 °F 73% 29.62 in 10.0 mi ESE 8.1 mph - N/A   Overcast
6:55 PM 28.8 °F 22.6 °F 20.8 °F 72% 29.64 in 10.0 mi ESE 5.8 mph - N/A   Overcast
7:15 PM 28.2 °F 19.5 °F 20.1 °F 72% 29.64 in 10.0 mi ESE 9.2 mph - N/A   Overcast
7:35 PM 27.5 °F 20.2 °F 19.4 °F 72% 29.63 in 10.0 mi ESE 6.9 mph - N/A   Mostly Cloudy
7:55 PM 27.5 °F 20.2 °F 19.2 °F 71% 29.65 in 10.0 mi SE 6.9 mph - N/A   Mostly Cloudy
8:15 PM 27.5 °F 21.1 °F 18.9 °F 70% 29.65 in 10.0 mi ESE 5.8 mph - N/A   Scattered Clouds
8:35 PM 27.3 °F 20.9 °F 18.3 °F 69% 29.65 in 10.0 mi ESE 5.8 mph - N/A   Scattered Clouds
8:55 PM 27.5 °F 21.1 °F 18.3 °F 68% 29.65 in 10.0 mi ESE 5.8 mph - N/A   Mostly Cloudy
9:15 PM 28.0 °F 20.8 °F 18.3 °F 67% 29.66 in 10.0 mi East 6.9 mph - N/A   Mostly Cloudy
9:35 PM 28.4 °F 22.2 °F 18.9 °F 67% 29.66 in 10.0 mi East 5.8 mph - N/A   Mostly Cloudy
9:55 PM 27.5 °F 21.1 °F 19.4 °F 72% 29.67 in 10.0 mi East 5.8 mph - N/A   Overcast
10:15 PM 27.5 °F 19.3 °F 18.7 °F 69% 29.66 in 10.0 mi East 8.1 mph - N/A   Mostly Cloudy
10:35 PM 27.9 °F 20.6 °F 18.5 °F 68% 29.66 in 10.0 mi East 6.9 mph - N/A   Scattered Clouds
10:55 PM 28.4 °F 19.7 °F 18.1 °F 65% 29.66 in 10.0 mi East 9.2 mph - N/A   Mostly Cloudy
11:15 PM 28.2 °F 21.0 °F 18.3 °F 66% 29.67 in 10.0 mi East 6.9 mph - N/A   Mostly Cloudy
11:35 PM 28.4 °F 20.4 °F 17.8 °F 64% 29.67 in 10.0 mi East 8.1 mph - N/A   Scattered Clouds
11:55 PM 28.4 °F 22.2 °F 18.1 °F 65% 29.67 in 10.0 mi East 5.8 mph - N/A   Mostly Cloudy